Time,TemperatureF,DewpointF,PressureIn,WindDirection,WindDirectionDegrees,WindSpeedMPH,WindSpeedGustMPH,Humidity,HourlyPrecipIn,Conditions,Clouds,dailyrainin,SolarRadiationWatts/m^2,SoftwareType,DateUTC
2013-05-13 00:01:00,51.0,29.0,-100.00,NNE,18,2.0,12.0,42,0.00,,,0.02,0.000000,,2013-05-13 04:01:00,
2013-05-13 00:23:00,51.0,29.0,-100.00,NNE,18,2.0,12.0,42,0.00,,,0.02,0.000000,,2013-05-13 04:23:00,
2013-05-13 00:33:00,51.0,29.0,-100.00,NNE,18,2.0,12.0,42,0.00,,,0.02,0.000000,,2013-05-13 04:33:00,
2013-05-13 00:42:00,51.0,29.0,-100.00,NNE,18,2.0,12.0,42,0.00,,,0.02,0.000000,,2013-05-13 04:42:00,
2013-05-13 00:53:00,51.0,29.0,-100.00,NNE,18,2.0,12.0,42,0.00,,,0.02,0.000000,,2013-05-13 04:53:00,
2013-05-13 01:01:00,50.0,29.0,-100.00,NNE,17,2.0,9.0,44,0.00,,,0.02,0.000000,,2013-05-13 05:01:00,
2013-05-13 01:32:00,50.0,29.0,-100.00,NNE,17,2.0,9.0,44,0.00,,,0.02,0.000000,,2013-05-13 05:32:00,
2013-05-13 01:42:00,50.0,29.0,-100.00,NNE,17,2.0,9.0,44,0.00,,,0.02,0.000000,,2013-05-13 05:42:00,
2013-05-13 01:52:00,50.0,29.0,-100.00,NNE,17,2.0,9.0,44,0.00,,,0.02,0.000000,,2013-05-13 05:52:00,
2013-05-13 02:01:00,47.0,31.0,-100.00,North,9,1.0,7.0,54,0.00,,,0.02,0.000000,,2013-05-13 06:01:00,
2013-05-13 02:22:00,47.0,31.0,-100.00,North,9,1.0,7.0,54,0.00,,,0.02,0.000000,,2013-05-13 06:22:00,
2013-05-13 02:32:00,47.0,31.0,-100.00,North,9,1.0,7.0,54,0.00,,,0.02,0.000000,,2013-05-13 06:32:00,
2013-05-13 02:42:00,47.0,31.0,-100.00,North,9,1.0,7.0,54,0.00,,,0.02,0.000000,,2013-05-13 06:42:00,
2013-05-13 02:52:00,47.0,31.0,-100.00,North,9,1.0,7.0,54,0.00,,,0.02,0.000000,,2013-05-13 06:52:00,
2013-05-13 03:01:00,44.0,30.0,-100.00,North,11,1.0,8.0,58,0.00,,,0.02,0.000000,,2013-05-13 07:01:00,
2013-05-13 03:32:00,44.0,30.0,-100.00,North,11,1.0,8.0,58,0.00,,,0.02,0.000000,,2013-05-13 07:32:00,
2013-05-13 03:42:00,44.0,30.0,-100.00,North,11,1.0,8.0,58,0.00,,,0.02,0.000000,,2013-05-13 07:42:00,
2013-05-13 03:52:00,44.0,30.0,-100.00,North,11,1.0,8.0,58,0.00,,,0.02,0.000000,,2013-05-13 07:52:00,
2013-05-13 04:01:00,41.0,29.0,-100.00,North,10,0.0,3.0,63,0.00,,,-99.99,0.000000,,2013-05-13 08:01:00,
2013-05-13 04:22:00,41.0,29.0,-100.00,North,10,0.0,3.0,63,0.00,,,-99.99,0.000000,,2013-05-13 08:22:00,
2013-05-13 04:32:00,41.0,29.0,-100.00,North,10,0.0,3.0,63,0.00,,,-99.99,0.000000,,2013-05-13 08:32:00,
2013-05-13 04:42:00,41.0,29.0,-100.00,North,10,0.0,3.0,63,0.00,,,-99.99,0.000000,,2013-05-13 08:42:00,
2013-05-13 04:52:00,41.0,29.0,-100.00,North,10,0.0,3.0,63,0.00,,,-99.99,0.000000,,2013-05-13 08:52:00,
2013-05-13 05:01:00,41.0,30.0,-100.00,North,1,0.0,4.0,65,0.00,,,0.01,0.000000,,2013-05-13 09:01:00,
2013-05-13 05:33:00,41.0,30.0,-100.00,North,1,0.0,4.0,65,0.00,,,0.01,0.000000,,2013-05-13 09:33:00,
2013-05-13 05:42:00,41.0,30.0,-100.00,North,1,0.0,4.0,65,0.00,,,0.01,0.000000,,2013-05-13 09:42:00,
2013-05-13 05:52:00,41.0,30.0,-100.00,North,1,0.0,4.0,65,0.00,,,0.01,0.000000,,2013-05-13 09:52:00,
2013-05-13 06:01:00,37.0,30.0,-100.00,ENE,66,0.0,1.0,77,0.00,,,0.00,5.000000,,2013-05-13 10:01:00,
2013-05-13 06:22:00,37.0,30.0,-100.00,ENE,66,0.0,1.0,77,0.00,,,0.00,5.000000,,2013-05-13 10:22:00,
2013-05-13 06:33:00,37.0,30.0,-100.00,ENE,66,0.0,1.0,77,0.00,,,0.00,5.000000,,2013-05-13 10:33:00,
2013-05-13 06:43:00,37.0,30.0,-100.00,ENE,66,0.0,1.0,77,0.00,,,0.00,5.000000,,2013-05-13 10:43:00,
2013-05-13 06:52:00,37.0,30.0,-100.00,ENE,66,0.0,1.0,77,0.00,,,0.00,5.000000,,2013-05-13 10:52:00,
2013-05-13 07:01:00,44.0,35.0,-100.00,North,351,0.0,4.0,70,0.00,,,0.00,73.000000,,2013-05-13 11:01:00,
2013-05-13 07:22:00,44.0,35.0,-100.00,North,351,0.0,4.0,70,0.00,,,0.00,73.000000,,2013-05-13 11:22:00,
2013-05-13 07:32:00,44.0,35.0,-100.00,North,351,0.0,4.0,70,0.00,,,0.00,73.000000,,2013-05-13 11:32:00,
2013-05-13 07:42:00,44.0,35.0,-100.00,North,351,0.0,4.0,70,0.00,,,0.00,73.000000,,2013-05-13 11:42:00,
2013-05-13 07:52:00,44.0,35.0,-100.00,North,351,0.0,4.0,70,0.00,,,0.00,73.000000,,2013-05-13 11:52:00,
2013-05-13 08:01:00,54.0,33.0,-100.00,NNE,23,1.0,6.0,45,0.00,,,0.00,291.000000,,2013-05-13 12:01:00,
2013-05-13 08:32:00,54.0,33.0,-100.00,NNE,23,1.0,6.0,45,0.00,,,0.00,291.000000,,2013-05-13 12:32:00,
2013-05-13 08:42:00,54.0,33.0,-100.00,NNE,23,1.0,6.0,45,0.00,,,0.00,291.000000,,2013-05-13 12:42:00,
2013-05-13 08:52:00,54.0,33.0,-100.00,NNE,23,1.0,6.0,45,0.00,,,0.00,291.000000,,2013-05-13 12:52:00,
2013-05-13 09:01:00,56.0,32.0,-100.00,NNE,12,2.0,11.0,40,0.00,,,0.00,492.000000,,2013-05-13 13:01:00,
2013-05-13 09:32:00,56.0,32.0,-100.00,NNE,12,2.0,11.0,40,0.00,,,0.00,492.000000,,2013-05-13 13:32:00,
2013-05-13 09:42:00,56.0,32.0,-100.00,NNE,12,2.0,11.0,40,0.00,,,0.00,492.000000,,2013-05-13 13:42:00,
2013-05-13 09:52:00,56.0,32.0,-100.00,NNE,12,2.0,11.0,40,0.00,,,0.00,492.000000,,2013-05-13 13:52:00,
2013-05-13 11:01:00,60.0,29.0,-100.00,NNE,17,2.0,11.0,31,-99.99,,,0.00,820.000000,,2013-05-13 15:01:00,
2013-05-13 11:32:00,60.0,29.0,-100.00,NNE,17,2.0,11.0,31,-99.99,,,0.00,820.000000,,2013-05-13 15:32:00,
2013-05-13 11:42:00,60.0,29.0,-100.00,NNE,17,2.0,11.0,31,-99.99,,,0.00,820.000000,,2013-05-13 15:42:00,
2013-05-13 11:53:00,60.0,29.0,-100.00,NNE,17,2.0,11.0,31,-99.99,,,0.00,820.000000,,2013-05-13 15:53:00,
2013-05-13 12:01:00,-999.0,-99.9,-100.00,NE,35,2.0,10.0,3,0.00,,,0.00,801.000000,,2013-05-13 16:01:00,
2013-05-13 12:22:00,-999.0,-99.9,-100.00,NE,35,2.0,10.0,3,0.00,,,0.00,801.000000,,2013-05-13 16:22:00,
2013-05-13 12:34:00,-999.0,-99.9,-100.00,NE,35,2.0,10.0,3,0.00,,,0.00,801.000000,,2013-05-13 16:34:00,
2013-05-13 12:43:00,-999.0,-99.9,-100.00,NE,35,2.0,10.0,3,0.00,,,0.00,801.000000,,2013-05-13 16:43:00,
2013-05-13 12:53:00,-999.0,-99.9,-100.00,NE,35,2.0,10.0,3,0.00,,,0.00,801.000000,,2013-05-13 16:53:00,
2013-05-13 13:01:00,56.0,32.0,-100.00,North,359,2.0,10.0,40,0.00,,,0.00,136.000000,,2013-05-13 17:01:00,
2013-05-13 13:32:00,56.0,32.0,-100.00,North,359,2.0,10.0,40,0.00,,,0.00,136.000000,,2013-05-13 17:32:00,
2013-05-13 13:42:00,56.0,32.0,-100.00,North,359,2.0,10.0,40,0.00,,,0.00,136.000000,,2013-05-13 17:42:00,
2013-05-13 13:54:00,56.0,32.0,-100.00,North,359,2.0,10.0,40,0.00,,,0.00,136.000000,,2013-05-13 17:54:00,
2013-05-13 15:01:00,57.0,29.0,-100.00,North,11,3.0,12.0,34,-99.99,,,0.00,152.000000,,2013-05-13 19:01:00,
2013-05-13 15:33:00,57.0,29.0,-100.00,North,11,3.0,12.0,34,-99.99,,,0.00,152.000000,,2013-05-13 19:33:00,
2013-05-13 15:44:00,57.0,29.0,-100.00,North,11,3.0,12.0,34,-99.99,,,0.00,152.000000,,2013-05-13 19:44:00,
2013-05-13 15:53:00,57.0,29.0,-100.00,North,11,3.0,12.0,34,-99.99,,,0.00,152.000000,,2013-05-13 19:53:00,
2013-05-13 16:01:00,57.0,28.0,-100.00,North,10,3.0,11.0,33,0.00,,,0.00,154.000000,,2013-05-13 20:01:00,
2013-05-13 16:23:00,57.0,28.0,-100.00,North,10,3.0,11.0,33,0.00,,,0.00,154.000000,,2013-05-13 20:23:00,
2013-05-13 16:34:00,57.0,28.0,-100.00,North,10,3.0,11.0,33,0.00,,,0.00,154.000000,,2013-05-13 20:34:00,
2013-05-13 16:44:00,57.0,28.0,-100.00,North,10,3.0,11.0,33,0.00,,,0.00,154.000000,,2013-05-13 20:44:00,
2013-05-13 16:53:00,57.0,28.0,-100.00,North,10,3.0,11.0,33,0.00,,,0.00,154.000000,,2013-05-13 20:53:00,
2013-05-13 17:01:00,56.0,26.0,-100.00,NNE,28,3.0,13.0,31,0.00,,,0.00,174.000000,,2013-05-13 21:01:00,
2013-05-13 17:23:00,56.0,26.0,-100.00,NNE,28,3.0,13.0,31,0.00,,,0.00,174.000000,,2013-05-13 21:23:00,
2013-05-13 17:34:00,56.0,26.0,-100.00,NNE,28,3.0,13.0,31,0.00,,,0.00,174.000000,,2013-05-13 21:34:00,
2013-05-13 17:44:00,56.0,26.0,-100.00,NNE,28,3.0,13.0,31,0.00,,,0.00,174.000000,,2013-05-13 21:44:00,
2013-05-13 17:53:00,56.0,26.0,-100.00,NNE,28,3.0,13.0,31,0.00,,,0.00,174.000000,,2013-05-13 21:53:00,
2013-05-13 18:01:00,54.0,28.0,-100.00,NE,42,3.0,13.0,36,0.00,,,0.00,105.000000,,2013-05-13 22:01:00,
2013-05-13 18:32:00,54.0,28.0,-100.00,NE,42,3.0,13.0,36,0.00,,,0.00,105.000000,,2013-05-13 22:32:00,
2013-05-13 18:43:00,54.0,28.0,-100.00,NE,42,3.0,13.0,36,0.00,,,0.00,105.000000,,2013-05-13 22:43:00,
2013-05-13 18:52:00,54.0,28.0,-100.00,NE,42,3.0,13.0,36,0.00,,,0.00,105.000000,,2013-05-13 22:52:00,
2013-05-13 19:01:00,51.0,27.0,-100.00,NE,40,1.0,10.0,39,0.00,,,0.00,38.000000,,2013-05-13 23:01:00,
2013-05-13 19:23:00,51.0,27.0,-100.00,NE,40,1.0,10.0,39,0.00,,,0.00,38.000000,,2013-05-13 23:23:00,
2013-05-13 19:34:00,51.0,27.0,-100.00,NE,40,1.0,10.0,39,0.00,,,0.00,38.000000,,2013-05-13 23:34:00,
2013-05-13 19:42:00,51.0,27.0,-100.00,NE,40,1.0,10.0,39,0.00,,,0.00,38.000000,,2013-05-13 23:42:00,
2013-05-13 19:54:00,51.0,27.0,-100.00,NE,40,1.0,10.0,39,0.00,,,0.00,38.000000,,2013-05-13 23:54:00,
2013-05-13 20:01:00,45.0,30.0,-100.00,NNE,14,0.0,6.0,55,0.00,,,0.00,6.000000,,2013-05-14 00:01:00,
2013-05-13 20:22:00,45.0,30.0,-100.00,NNE,14,0.0,6.0,55,0.00,,,0.00,6.000000,,2013-05-14 00:22:00,
2013-05-13 20:32:00,45.0,30.0,-100.00,NNE,14,0.0,6.0,55,0.00,,,0.00,6.000000,,2013-05-14 00:32:00,
2013-05-13 20:42:00,45.0,30.0,-100.00,NNE,14,0.0,6.0,55,0.00,,,0.00,6.000000,,2013-05-14 00:42:00,
2013-05-13 20:52:00,45.0,30.0,-100.00,NNE,14,0.0,6.0,55,0.00,,,0.00,6.000000,,2013-05-14 00:52:00,
2013-05-13 21:01:00,43.0,30.0,-100.00,NNE,29,0.0,5.0,59,0.00,,,0.00,0.000000,,2013-05-14 01:01:00,
2013-05-13 21:32:00,43.0,30.0,-100.00,NNE,29,0.0,5.0,59,0.00,,,0.00,0.000000,,2013-05-14 01:32:00,
2013-05-13 21:43:00,43.0,30.0,-100.00,NNE,29,0.0,5.0,59,0.00,,,0.00,0.000000,,2013-05-14 01:43:00,
2013-05-13 21:53:00,43.0,30.0,-100.00,NNE,29,0.0,5.0,59,0.00,,,0.00,0.000000,,2013-05-14 01:53:00,
2013-05-13 22:01:00,44.0,32.0,-100.00,NNE,27,0.0,5.0,62,0.00,,,0.00,0.000000,,2013-05-14 02:01:00,
2013-05-13 22:22:00,44.0,32.0,-100.00,NNE,27,0.0,5.0,62,0.00,,,0.00,0.000000,,2013-05-14 02:22:00,
2013-05-13 22:32:00,44.0,32.0,-100.00,NNE,27,0.0,5.0,62,0.00,,,0.00,0.000000,,2013-05-14 02:32:00,
2013-05-13 22:42:00,44.0,32.0,-100.00,NNE,27,0.0,5.0,62,0.00,,,0.00,0.000000,,2013-05-14 02:42:00,
2013-05-13 22:52:00,44.0,32.0,-100.00,NNE,27,0.0,5.0,62,0.00,,,0.00,0.000000,,2013-05-14 02:52:00,
2013-05-13 23:01:00,42.0,33.0,-100.00,NE,45,0.0,5.0,69,0.00,,,0.00,0.000000,,2013-05-14 03:01:00,
2013-05-13 23:21:00,42.0,33.0,-100.00,NE,45,0.0,5.0,69,0.00,,,0.00,0.000000,,2013-05-14 03:21:00,
2013-05-13 23:33:00,42.0,33.0,-100.00,NE,45,0.0,5.0,69,0.00,,,0.00,0.000000,,2013-05-14 03:33:00,
2013-05-13 23:43:00,42.0,33.0,-100.00,NE,45,0.0,5.0,69,0.00,,,0.00,0.000000,,2013-05-14 03:43:00,
2013-05-13 23:53:00,42.0,33.0,-100.00,NE,45,0.0,5.0,69,0.00,,,0.00,0.000000,,2013-05-14 03:53:00,